Shelton, WA
on Sunday, February 3, 2013

Sunday
Previous Day Next Day
Daily Summary
 ActualAverage (KOLM)Record (KOLM)
Temperature
Mean Temperature °F 40°F  
Max Temperature 46°F 48°F 60°F (1954)
Min Temperature 37°F 33°F 1°F (1950)
Degree Days
Heating Degree Days 24 24  
Month to date heating degree days 73  
Since 1 July heating degree days 3124  
Cooling Degree Days 0 0  
Month to date cooling degree days 0  
Year to date cooling degree days 0  
Moisture
Dew Point 42°F   
Average Humidity 94    
Maximum Humidity 100    
Minimum Humidity 86    
Precipitation
Precipitation 0.01 in 0.21 in 1.50 in (1968)
Month to date precipitation 0.60  
Year to date precipitation 8.44  
Wind
Wind Speed 5 mph   
Max Wind Speed 13 mph   
Max Gust Speed mph   
Visibility 10 miles   
Events     

Key: T is trace of precipitation, MM is missing value
Source: NWS Daily Summary
Time(PST)TemperatureDew PointHumidity Pressure Visibility Wind DirectionWind SpeedGust SpeedPrecipitationEvents Conditions
12:00 AM 37.4°F 37.4°F 100% 30.27 in 10.0 miles West 12.7 mph - N/A   Overcast
12:15 AM 39.2°F 37.4°F 93% 30.26 in 10.0 miles SW 8.1 mph - N/A   Overcast
12:53 AM 37.9°F 37.9°F 100% 30.27 in 10.0 miles SW 5.8 mph - N/A   Overcast
1:53 AM 39.0°F 39.0°F 100% 30.26 in 10.0 miles SW 3.5 mph - N/A   Overcast
2:35 AM 41.0°F 41.0°F 100% 30.25 in 10.0 miles SSW 3.5 mph - N/A   Overcast
2:53 AM 41.0°F 41.0°F 100% 30.27 in 10.0 miles West 3.5 mph - N/A   Overcast
3:11 AM 42.8°F 42.8°F 100% 30.24 in 10.0 miles Calm Calm - N/A   Overcast
3:53 AM 41.0°F 41.0°F 100% 30.25 in 10.0 miles SSW 3.5 mph - 0.01 in   Overcast
4:26 AM 42.8°F 42.8°F 100% 30.24 in 10.0 miles SSW 3.5 mph - N/A   Overcast
4:53 AM 43.0°F 43.0°F 100% 30.26 in 10.0 miles Calm Calm - N/A   Overcast
5:22 AM 42.8°F 42.8°F 100% 30.25 in 10.0 miles SW 3.5 mph - N/A   Overcast
5:33 AM 42.8°F 42.8°F 100% 30.25 in 10.0 miles Calm Calm - N/A   Overcast
5:53 AM 43.0°F 43.0°F 100% 30.26 in 10.0 miles South 3.5 mph - N/A   Overcast
6:01 AM 42.8°F 42.8°F 100% 30.24 in 10.0 miles Calm Calm - N/A   Overcast
6:12 AM 42.8°F 42.8°F 100% 30.25 in 10.0 miles Calm Calm - N/A   Overcast
6:21 AM 42.8°F 42.8°F 100% 30.26 in 10.0 miles Calm Calm - N/A   Overcast
6:27 AM 42.8°F 42.8°F 100% 30.26 in 10.0 miles Calm Calm - N/A   Overcast
6:49 AM 41.0°F 41.0°F 100% 30.25 in 5.0 miles Calm Calm - N/A   Overcast
6:53 AM 41.0°F 41.0°F 100% 30.27 in 4.0 miles Calm Calm - N/A   Overcast
7:44 AM 41.0°F 39.2°F 93% 30.26 in 4.0 miles ESE 4.6 mph - N/A   Overcast
7:53 AM 41.0°F 39.9°F 96% 30.27 in 8.0 miles Calm Calm - N/A   Overcast
8:53 AM 42.1°F 41.0°F 96% 30.30 in 10.0 miles Calm Calm - N/A   Overcast
9:03 AM 42.8°F 42.8°F 100% 30.28 in 10.0 miles Calm Calm - N/A   Overcast
9:25 AM 42.8°F 41.0°F 93% 30.28 in 10.0 miles Calm Calm - N/A   Overcast
9:53 AM 43.0°F 42.1°F 97% 30.29 in 10.0 miles Calm Calm - N/A   Overcast
10:53 AM 44.1°F 43.0°F 96% 30.28 in 10.0 miles Calm Calm - N/A   Overcast
11:09 AM 44.6°F 44.6°F 100% 30.27 in 10.0 miles Calm Calm - N/A   Overcast
11:53 AM 46.0°F 44.1°F 93% 30.27 in 10.0 miles SW 8.1 mph - N/A   Overcast
12:03 PM 46.4°F 44.6°F 93% 30.26 in 10.0 miles SW 10.4 mph - N/A   Overcast
12:53 PM 46.9°F 44.1°F 90% 30.26 in 10.0 miles SW 8.1 mph - N/A   Overcast
1:29 PM 46.4°F 42.8°F 87% 30.24 in 10.0 miles SW 8.1 mph - N/A   Overcast
1:53 PM 46.9°F 44.1°F 90% 30.24 in 10.0 miles SW 8.1 mph - N/A   Overcast
2:34 PM 46.4°F 42.8°F 87% 30.22 in 10.0 miles SSW 6.9 mph - N/A   Overcast
2:48 PM 46.4°F 42.8°F 87% 30.23 in 10.0 miles SW 6.9 mph - N/A   Overcast
2:53 PM 46.9°F 43.0°F 86% 30.24 in 10.0 miles SW 5.8 mph - N/A   Overcast
3:53 PM 46.9°F 43.0°F 86% 30.25 in 10.0 miles SW 6.9 mph - N/A   Overcast
4:10 PM 46.4°F 42.8°F 87% 30.23 in 10.0 miles SSW 6.9 mph - N/A   Overcast
4:43 PM 46.4°F 42.8°F 87% 30.22 in 10.0 miles SW 6.9 mph - N/A   Overcast
4:53 PM 46.0°F 43.0°F 89% 30.23 in 10.0 miles SW 6.9 mph - N/A   Overcast
5:23 PM 46.4°F 42.8°F 87% 30.22 in 10.0 miles SW 6.9 mph - 0.00 in   Overcast
5:53 PM 45.0°F 42.1°F 90% 30.23 in 10.0 miles SSW 6.9 mph - 0.00 in   Overcast
6:53 PM 44.1°F 41.0°F 89% 30.24 in 10.0 miles SW 6.9 mph - N/A   Overcast
7:38 PM 44.6°F 41.0°F 87% 30.21 in 10.0 miles SSW 5.8 mph - N/A   Overcast
7:53 PM 44.1°F 41.0°F 89% 30.22 in 10.0 miles SW 5.8 mph - N/A   Overcast
8:53 PM 44.1°F 41.0°F 89% 30.22 in 10.0 miles SSW 9.2 mph - N/A   Overcast
9:53 PM 44.1°F 41.0°F 89% 30.22 in 10.0 miles SW 10.4 mph - N/A   Overcast
10:44 PM 42.8°F 41.0°F 93% 30.20 in 10.0 miles SW 6.9 mph - N/A   Overcast
10:53 PM 43.0°F 41.0°F 93% 30.20 in 10.0 miles SSW 6.9 mph - N/A   Overcast
11:20 PM 42.8°F 41.0°F 93% 30.19 in 10.0 miles SSW 8.1 mph - N/A   Overcast
11:53 PM 43.0°F 41.0°F 93% 30.20 in 10.0 miles SSW 9.2 mph - N/A   Overcast
Moon Phase
Feb. 03 Feb. 10 Feb. 17 Feb. 25 Mar. 04
Sunrise:07:35 AM (PST) Moon Rise:01:10 AM (PST)2/3
Sunset:05:18 PM (PST) Moon Set:10:56 AM (PST)2/3

Copyright © 2014 The Weather Underground, Inc.